Location: Unspecified
(0.0000°N, 0.0000°E)
Time: 16:16:17
(UTC+02:00)

Meteor 2-8 Rocket - Visible Passes

Search period start: 27 May 2016 00:00
Search period end: 06 June 2016 00:00
Orbit: 936 x 958 km, 82.5° (Epoch: 26 May)

Date Brightness Start Highest point End Pass type
(mag) Time Alt. Az. Time Alt. Az. Time Alt. Az.
27 May 5.7 07:03:49 10° NNE 07:09:30 44° E 07:15:12 10° SSE visible
28 May 4.6 07:20:21 10° N 07:26:22 80° E 07:32:26 10° S visible
28 May 7.2 20:22:44 10° SW 20:27:11 21° W 20:31:38 10° NW visible
29 May 7.8 20:42:55 10° W 20:44:04 11° W 20:45:13 10° WNW visible
30 May 7.0 06:11:30 10° NE 06:15:39 19° E 06:19:48 10° SE visible
31 May 6.0 06:27:06 10° NNE 06:32:31 35° E 06:37:58 10° SSE visible
01 Jun 4.9 06:43:26 10° N 06:49:24 65° E 06:55:25 10° SSE visible
02 Jun 4.4 07:00:17 10° N 07:06:17 71° W 07:12:20 10° S visible
03 Jun 7.1 05:35:20 10° NE 05:38:40 15° E 05:42:01 10° ESE visible
03 Jun 4.9 07:17:37 10° NNW 07:23:10 38° W 07:28:46 10° SSW visible
04 Jun 6.2 05:50:28 10° NNE 05:55:32 28° E 06:00:39 10° SE visible
05 Jun 5.2 06:06:34 10° NNE 06:12:25 52° E 06:18:19 10° SSE visible
